Location: Trebic
(49.2170°N, 15.8830°E)
Time: 02:24:38
(UTC+02:00)

Transit 2A Rocket - Pass Details

Date: 29 July 2019
Orbit: 590 x 913 km, 66.7° (Epoch: 20 August)

Event Time Altitude Azimuth Distance (km) Brightness Sun altitude
Rises 06:54:12 0° 311° (NW) 3,331 8.0 12.7°
Reaches altitude 10° 06:58:42 10° 344° (NNW) 2,308 7.5 13.4°
Maximum altitude 07:00:21 11° 3° (N) 2,177 7.6 13.7°
Drops below altitude 10° 07:01:59 10° 22° (NNE) 2,237 8.0 14.0°
Sets 07:06:07 0° 56° (ENE) 3,065 9.5 14.6°
